Lid_Strength_Index
5 5 6 7 10 12 14 12 11 10 10 8 7 7 8 8 10 12 3 1 -0 0 -0 -1 -1 -2 -2 -2 -2 -2 -2 -2 -2 -2 -2 -2 -2 -2 -2 -2 -2 -2 -2 -2 -2 -2 -2 -2 -2
7 5 6 9 13 15 14 12 11 9 7 6 7 7 8 11 5 4 3 0 -0 -0 -0 -0 -1 -2 -2 -2 -2 -2 -2 -2 -2 -2 -2 -2 -2 -2 -2 -2 -2 -2 -2 -2 -2 -2 -2 -2 -2
7 7 7 10 13 14 14 11 9 9 7 8 8 7 7 9 5 4 2 -0 -0 -0 -0 -0 -1 -1 -2 -2 -2 -2 -2 -2 -2 -2 -2 -2 -2 -2 -2 -2 -2 -2 -2 -2 -2 -2 -2 -2 -2
9 8 9 12 13 12 12 10 8 9 9 6 7 9 6 4 4 3 0 -0 0 0 -0 -0 -1 -2 -2 -2 -2 -2 -2 -2 -2 -2 -2 -2 -2 -2 -2 -2 -2 -2 -2 -1 -2 -2 -2 -2 -2
11 10 12 13 13 12 12 9 9 9 9 8 7 10 9 4 2 1 0 -0 0 0 0 -0 -1 -1 -2 -2 -2 -2 -2 -2 -2 -2 -2 -2 -2 -2 -2 -2 -2 -2 -2 -2 -2 -2 -2 -2 -2
12 12 14 13 13 12 10 9 9 10 9 7 8 9 8 3 2 1 0 1 -0 0 0 0 0 -0 -1 -1 -2 -2 -2 -2 -2 -2 -2 -2 -2 -2 -2 -2 -2 -2 -2 -2 -2 -2 -2 -2 -2
13 14 14 14 13 12 9 9 10 10 9 8 6 10 8 4 2 2 1 1 0 0 0 1 0 0 0 -0 -1 -1 -2 -2 -2 -2 -2 -1 -2 -2 -2 -2 -2 -2 -2 -1 -2 -2 -2 -2 -2
11 13 15 14 13 12 11 9 9 9 10 7 5 9 9 5 3 1 1 1 0 0 0 1 1 1 1 0 1 0 -1 -1 -1 -1 -1 -1 -1 -1 -2 -1 -2 -2 -2 -2 -1 -2 -2 -2 -2
11 15 16 13 12 12 10 10 10 10 9 8 8 6 4 3 1 2 2 1 1 0 0 1 1 1 1 1 2 1 1 0 -0 -0 -0 0 1 0 0 -0 -1 -2 -2 -1 -1 -2 -2 -1 -1
12 15 14 11 11 12 10 10 10 10 9 8 8 5 3 3 3 3 3 3 2 2 1 0 1 1 1 -0 1 1 -0 1 1 0 0 -0 0 0 0 1 -0 -1 -1 -1 -1 -2 -1 0 1
13 14 12 12 10 10 10 10 11 10 12 7 7 6 4 4 4 4 3 3 3 1 1 0 0 1 1 1 1 1 1 -0 1 1 1 1 1 1 1 1 1 1 1 1 1 1 2 2 2
14 12 12 11 10 10 10 9 11 11 10 9 5 4 4 4 4 4 4 3 3 2 1 0 0 0 1 1 1 1 0 1 1 1 1 2 2 3 2 1 1 1 2 3 3 3 3 2 2
13 13 12 11 10 10 10 11 11 11 11 6 4 4 4 4 4 3 3 2 2 3 1 1 0 0 0 0 1 1 1 -0 1 1 1 2 2 3 3 2 2 2 2 3 3 3 3 3 2
12 12 13 12 10 10 11 11 11 10 9 6 5 5 4 4 4 5 4 3 3 2 2 1 1 1 0 1 1 0 1 1 1 1 1 1 2 3 3 3 2 2 2 2 2 3 3 3 3
12 13 13 14 13 11 10 13 12 11 9 6 6 5 5 4 4 4 4 3 2 2 2 2 2 1 1 1 1 1 1 0 1 1 1 1 2 3 3 3 3 3 2 3 3 3 3 4 3
14 14 16 15 13 12 11 14 10 11 9 7 7 6 5 5 4 3 4 3 3 2 2 1 1 2 1 1 1 1 1 1 1 1 0 -0 1 1 3 3 3 3 3 4 4 4 4 4 4
13 18 17 16 14 14 12 13 11 11 10 9 7 6 6 5 6 5 4 3 3 2 2 2 2 2 1 1 1 1 -0 0 -0 -0 -0 -0 -0 0 1 3 3 3 4 5 5 5 5 5 5
15 17 18 17 15 15 14 13 12 12 12 10 9 8 6 5 5 4 5 5 4 3 2 1 1 2 2 2 2 1 0 -0 -0 0 0 0 0 1 1 1 2 3 4 5 6 6 5 5 5
14 16 18 16 14 15 15 12 11 12 13 13 12 12 11 9 6 7 5 4 5 4 3 2 1 2 2 3 3 3 3 1 0 -0 0 1 0 0 1 1 1 2 3 3 4 4 4 5 6
15 16 18 16 15 15 16 14 12 13 12 12 12 12 12 12 11 10 9 8 6 4 2 2 2 2 2 2 2 3 3 2 1 -0 -0 0 1 1 1 1 1 2 2 3 3 4 5 5 5
14 17 18 17 16 16 17 16 15 13 12 12 12 12 12 11 11 11 10 8 5 5 3 2 2 2 2 2 3 4 3 3 2 1 0 0 0 1 1 1 1 2 2 3 4 4 5 5 6
15 15 15 17 18 19 18 19 18 15 13 13 11 12 11 12 11 11 11 10 9 8 8 5 4 3 2 2 3 3 3 3 3 2 1 1 -0 0 1 1 1 1 2 3 3 4 4 4 5
15 15 15 17 18 19 19 21 18 18 16 14 13 12 10 11 11 11 11 10 10 8 10 10 10 9 4 3 2 3 4 4 4 2 1 1 0 0 1 1 1 2 2 2 3 4 4 4 5
13 15 16 18 19 22 19 19 20 18 15 14 14 13 12 12 11 11 10 9 9 7 7 7 8 9 10 5 4 3 4 4 4 2 2 2 1 0 1 2 2 2 2 3 3 3 4 4 4
14 16 21 22 22 23 21 21 17 16 15 14 13 13 13 12 11 10 9 9 9 8 7 7 8 8 9 9 4 3 4 4 4 2 3 2 1 2 1 2 2 3 2 3 3 3 3 4 4
16 17 20 25 24 23 21 21 18 15 14 13 13 13 12 12 11 10 10 9 9 8 7 7 7 7 8 6 7 3 4 3 4 4 3 1 2 2 2 2 2 3 3 2 3 4 4 4 4
16 17 16 20 23 22 21 20 16 15 14 12 12 12 12 12 11 10 9 9 9 8 7 7 7 7 6 6 6 5 5 5 6 6 4 4 4 5 4 5 5 5 5 4 4 5 5 5 5
15 14 18 19 24 25 22 22 20 17 14 13 12 12 12 11 11 10 10 10 9 9 8 7 7 7 7 7 7 6 6 7 7 6 6 6 6 6 6 7 7 8 8 7 7 8 8 9 9
17 17 17 16 18 21 24 21 17 15 14 13 12 11 11 11 11 10 10 10 10 9 9 9 8 8 8 8 8 9 9 10 10 8 8 8 7 8 9 9 10 10 10 10 11 11 11 11 12
16 15 14 17 19 19 19 19 16 15 13 13 12 11 11 11 11 10 10 10 10 10 10 10 10 10 10 10 10 10 11 11 11 11 11 9 10 10 10 10 11 12 12 12 12 13 13 13 13